This is the latest recevied weather packets stored in our database for station/object G8SIB-9. If no packets are shown the sender has not sent any weather packets the latest 10 day(s).
| Time | Temp. | Humidity | Pressure | Rain* | Wind** | Luminosity | Snow |
|---|---|---|---|---|---|---|---|
| 1777738830 | 21.11° C | 45% | 1010 hPa | 0 mm | - | - | - |
| 1777738230 | 21.67° C | 44% | 1010.3 hPa | 0 mm | - | - | - |
| 1777737629 | 21.67° C | 44% | 1010.4 hPa | 0 mm | - | - | - |
| 1777737028 | 21.67° C | 44% | 1010.4 hPa | 0 mm | - | - | - |
| 1777736428 | 21.11° C | 45% | 1010.5 hPa | 0 mm | - | - | - |
| 1777735827 | 21.67° C | 44% | 1010.6 hPa | 0 mm | - | - | - |
| 1777735225 | 22.22° C | 44% | 1010.8 hPa | 0 mm | - | - | - |
| 1777734625 | 22.22° C | 44% | 1011 hPa | 0 mm | - | - | - |
| 1777734025 | 22.22° C | 45% | 1011.1 hPa | 0 mm | - | - | - |
| 1777733422 | 22.22° C | 44% | 1011.1 hPa | 0 mm | - | - | - |
| 1777732822 | 22.78° C | 43% | 1011.2 hPa | 0 mm | - | - | - |
| 1777732221 | 22.22° C | 45% | 1011.5 hPa | 0 mm | - | - | - |
| 1777731619 | 22.22° C | 45% | 1011.7 hPa | 0 mm | - | - | - |
| 1777731018 | 22.78° C | 44% | 1011.8 hPa | 0 mm | - | - | - |
| 1777730417 | 22.78° C | 44% | 1012 hPa | 0 mm | - | - | - |
| 1777729814 | 23.33° C | 43% | 1012 hPa | 0 mm | - | - | - |
| 1777729210 | 23.33° C | 44% | 1012 hPa | 0 mm | - | - | - |
| 1777728608 | 23.33° C | 42% | 1012.3 hPa | 0 mm | - | - | - |
| 1777728005 | 23.33° C | 42% | 1012.3 hPa | 0 mm | - | - | - |
| 1777727400 | 24.44° C | 35% | 1012.2 hPa | 0 mm | - | - | - |
| 1777726799 | 25° C | 35% | 1012.2 hPa | 0 mm | - | - | - |
| 1777726199 | 24.44° C | 35% | 1012.4 hPa | 0 mm | - | - | - |
| 1777725599 | 23.89° C | 35% | 1012.6 hPa | 0 mm | - | - | - |
| 1777724998 | 23.33° C | 36% | 1012.6 hPa | 0 mm | - | - | - |
| 1777724397 | 22.78° C | 36% | 1012.9 hPa | 0 mm | - | - | - |
* Rain latest hour (hover to see other rain measurements)
** Current wind speed in m/s (hover to see current wind gust speed)